| time (UTC) | temp F | wind direction | speed MPH | gust MPH | rain 1hr in | rain 24hr in | rain mn in | humidity % | barometer mb |
| 20260502170304 | 84 | 144 | 3.0 | 10.0 | 0.00 | 0.00 | 0.00 | 25 | 1015.3 |
| 20260502164304 | 82 | 131 | 4.0 | 11.0 | 0.00 | 0.00 | 0.00 | 26 | 1015.2 |
| 20260502163804 | 82 | 177 | 5.0 | 13.0 | 0.00 | 0.00 | 0.00 | 27 | 1015.2 |
| 20260502163303 | 82 | 113 | 10.0 | 13.0 | 0.00 | 0.00 | 0.00 | 27 | 1015.1 |
| 20260502162803 | 82 | 136 | 4.0 | 13.0 | 0.00 | 0.00 | 0.00 | 27 | 1015.2 |
| 20260502162304 | 81 | 130 | 5.0 | 13.0 | 0.00 | 0.00 | 0.00 | 28 | 1015.0 |
| 20260502161803 | 81 | 93 | 4.0 | 13.0 | 0.00 | 0.00 | 0.00 | 28 | 1015.0 |
| 20260502161303 | 81 | 87 | 9.0 | 13.0 | 0.00 | 0.00 | 0.00 | 28 | 1015.0 |
| 20260502160803 | 80 | 108 | 9.0 | 16.0 | 0.00 | 0.00 | 0.00 | 28 | 1015.0 |
| 20260502160303 | 80 | 88 | 11.0 | 16.0 | 0.00 | 0.00 | 0.00 | 28 | 1014.9 |
| 20260502152305 | 79 | 140 | 4.0 | 15.0 | 0.00 | 0.00 | 0.00 | 29 | 1014.7 |
| 20260502151801 | 79 | 107 | 9.0 | 15.0 | 0.00 | 0.00 | 0.00 | 29 | 1014.5 |
| 20260502151301 | 79 | 117 | 9.0 | 16.0 | 0.00 | 0.00 | 0.00 | 29 | 1014.5 |
| 20260502150301 | 79 | 112 | 9.0 | 12.0 | 0.00 | 0.00 | 0.00 | 29 | 1014.3 |
| 20260502123757 | 74 | 98 | 2.0 | 12.0 | 0.00 | 0.00 | 0.00 | 30 | 1013.0 |
| 20260502123256 | 74 | 70 | 6.0 | 11.0 | 0.00 | 0.00 | 0.00 | 30 | 1012.9 |
| 20260502122756 | 74 | 99 | 4.0 | 11.0 | 0.00 | 0.00 | 0.00 | 29 | 1013.0 |
| 20260502122257 | 74 | 153 | 4.0 | 12.0 | 0.00 | 0.00 | 0.00 | 29 | 1012.9 |
| 20260502121756 | 74 | 84 | 10.0 | 12.0 | 0.00 | 0.00 | 0.00 | 28 | 1012.8 |
| 20260502120756 | 75 | 82 | 3.0 | 12.0 | 0.00 | 0.00 | 0.00 | 27 | 1012.7 |
| 20260502120256 | 75 | 117 | 5.0 | 12.0 | 0.00 | 0.00 | 0.00 | 26 | 1012.9 |
| 20260502115756 | 75 | 94 | 5.0 | 15.0 | 0.00 | 0.00 | 0.00 | 25 | 1012.8 |
| 20260502115256 | 75 | 117 | 8.0 | 15.0 | 0.00 | 0.00 | 0.00 | 24 | 1012.7 |
| 20260502114755 | 75 | 61 | 11.0 | 14.0 | 0.00 | 0.00 | 0.00 | 23 | 1012.7 |
| 20260502114255 | 76 | 99 | 8.0 | 14.0 | 0.00 | 0.00 | 0.00 | 22 | 1012.7 |
| 20260502113755 | 76 | 75 | 2.0 | 13.0 | 0.00 | 0.00 | 0.00 | 21 | 1012.7 |
| 20260502113255 | 76 | 68 | 7.0 | 13.0 | 0.00 | 0.00 | 0.00 | 21 | 1012.7 |
| 20260502112755 | 76 | 79 | 3.0 | 13.0 | 0.00 | 0.00 | 0.00 | 20 | 1012.7 |
| 20260502111754 | 76 | 80 | 4.0 | 15.0 | 0.00 | 0.00 | 0.00 | 20 | 1012.7 |
| 20260502111254 | 76 | 105 | 7.0 | 15.0 | 0.00 | 0.00 | 0.00 | 20 | 1012.8 |
| 20260502105754 | 77 | 77 | 4.0 | 16.0 | 0.00 | 0.00 | 0.00 | 20 | 1012.7 |
| 20260502105253 | 77 | 53 | 8.0 | 16.0 | 0.00 | 0.00 | 0.00 | 20 | 1012.6 |
| 20260502104753 | 77 | 72 | 10.0 | 13.0 | 0.00 | 0.00 | 0.00 | 20 | 1012.6 |
| 20260502104253 | 77 | 63 | 8.0 | 12.0 | 0.00 | 0.00 | 0.00 | 20 | 1012.8 |
| 20260502103753 | 77 | 48 | 4.0 | 10.0 | 0.00 | 0.00 | 0.00 | 20 | 1012.7 |
| 20260502103253 | 77 | 84 | 4.0 | 10.0 | 0.00 | 0.00 | 0.00 | 20 | 1012.7 |
| 20260502102753 | 76 | 79 | 9.0 | 11.0 | 0.00 | 0.00 | 0.00 | 20 | 1012.7 |
| 20260502102253 | 77 | 167 | 1.0 | 11.0 | 0.00 | 0.00 | 0.00 | 19 | 1012.7 |
| 20260502101753 | 77 | 80 | 4.0 | 11.0 | 0.00 | 0.00 | 0.00 | 19 | 1012.7 |
| 20260502101252 | 77 | 115 | 7.0 | 11.0 | 0.00 | 0.00 | 0.00 | 19 | 1012.8 |
| 20260502100752 | 77 | 94 | 6.0 | 10.0 | 0.00 | 0.00 | 0.00 | 19 | 1012.7 |
| 20260502100252 | 77 | 86 | 1.0 | 10.0 | 0.00 | 0.00 | 0.00 | 19 | 1012.6 |
| 20260502090750 | 78 | 82 | 4.0 | 15.0 | 0.00 | 0.00 | 0.00 | 19 | 1012.7 |
| 20260502090250 | 78 | 82 | 4.0 | 12.0 | 0.00 | 0.00 | 0.00 | 19 | 1012.7 |
| 20260502071248 | 73 | 65 | 2.0 | 4.0 | 0.00 | 0.00 | 0.00 | 24 | 1012.7 |
| 20260502070747 | 72 | 63 | 1.0 | 2.0 | 0.00 | 0.00 | 0.00 | 25 | 1012.6 |
| 20260502070317 | 72 | 70 | 1.0 | 2.0 | 0.00 | 0.00 | 0.00 | 26 | 1012.6 |
| 20260502065817 | 71 | 72 | 1.0 | 1.0 | 0.00 | 0.00 | 0.00 | 27 | 1012.5 |
| 20260502065317 | 71 | 78 | 0.0 | 1.0 | 0.00 | 0.00 | 0.00 | 27 | 1012.4 |
| 20260502064817 | 71 | 78 | 0.0 | 2.0 | 0.00 | 0.00 | 0.00 | 27 | 1012.2 |
| 20260502064316 | 71 | 78 | 0.0 | 2.0 | 0.00 | 0.00 | 0.00 | 27 | 1012.3 |
| 20260502063817 | 70 | 99 | 0.0 | 2.0 | 0.00 | 0.00 | 0.00 | 28 | 1012.1 |
| 20260502063316 | 69 | 98 | 0.0 | 2.0 | 0.00 | 0.00 | 0.00 | 30 | 1012.1 |
| 20260502062816 | 69 | 78 | 0.0 | 2.0 | 0.00 | 0.00 | 0.00 | 30 | 1012.0 |
| 20260502062316 | 68 | 76 | 0.0 | 1.0 | 0.00 | 0.00 | 0.00 | 27 | 1011.9 |
| 20260502061816 | 69 | 76 | 0.0 | 1.0 | 0.00 | 0.00 | 0.00 | 27 | 1011.9 |
| 20260502061316 | 69 | 76 | 0.0 | 1.0 | 0.00 | 0.00 | 0.00 | 27 | 1011.9 |
| 20260502060315 | 70 | 76 | 0.0 | 1.0 | 0.00 | 0.00 | 0.00 | 26 | 1011.7 |
| 20260502055815 | 70 | 63 | 0.0 | 1.0 | 0.00 | 0.00 | 0.00 | 26 | 1011.7 |
| 20260502055315 | 70 | 61 | 0.0 | 1.0 | 0.00 | 0.00 | 0.00 | 26 | 1011.6 |
| 20260502054815 | 70 | 60 | 0.0 | 1.0 | 0.00 | 0.00 | 0.00 | 26 | 1011.6 |
| 20260502054315 | 69 | 61 | 0.0 | 1.0 | 0.00 | 0.00 | 0.00 | 26 | 1011.6 |
| 20260502053815 | 69 | 61 | 0.0 | 1.0 | 0.00 | 0.00 | 0.00 | 27 | 1011.5 |
| 20260502052815 | 70 | 61 | 0.0 | 1.0 | 0.00 | 0.00 | 0.00 | 26 | 1011.4 |
| 20260502052314 | 70 | 61 | 0.0 | 1.0 | 0.00 | 0.00 | 0.00 | 26 | 1011.4 |
| 20260502051814 | 70 | 61 | 0.0 | 1.0 | 0.00 | 0.00 | 0.00 | 26 | 1011.4 |
| 20260502051314 | 70 | 61 | 0.0 | 1.0 | 0.00 | 0.00 | 0.00 | 26 | 1011.4 |
| 20260502050814 | 71 | 61 | 0.0 | 1.0 | 0.00 | 0.00 | 0.00 | 25 | 1011.5 |
| 20260502050313 | 71 | 34 | 0.0 | 1.0 | 0.00 | 0.00 | 0.00 | 25 | 1011.5 |
| 20260502045814 | 70 | 34 | 0.0 | 1.0 | 0.00 | 0.00 | 0.00 | 26 | 1011.3 |
| 20260502045313 | 70 | 34 | 0.0 | 1.0 | 0.00 | 0.00 | 0.00 | 26 | 1011.2 |
| 20260502044313 | 69 | 34 | 0.0 | 0.0 | 0.00 | 0.00 | 0.00 | 26 | 1011.1 |
| 20260502043813 | 70 | 34 | 0.0 | 0.0 | 0.00 | 0.00 | 0.00 | 26 | 1011.1 |
| 20260502043313 | 70 | 34 | 0.0 | 0.0 | 0.00 | 0.00 | 0.00 | 26 | 1011.1 |
| 20260502042813 | 71 | 34 | 0.0 | 0.0 | 0.00 | 0.00 | 0.00 | 25 | 1011.1 |
| 20260502042313 | 71 | 34 | 0.0 | 0.0 | 0.00 | 0.00 | 0.00 | 25 | 1011.0 |
| 20260502041813 | 71 | 34 | 0.0 | 0.0 | 0.00 | 0.00 | 0.00 | 25 | 1010.9 |
| 20260502041312 | 71 | 34 | 0.0 | 0.0 | 0.00 | 0.00 | 0.00 | 25 | 1010.9 |
| 20260502040812 | 71 | 34 | 0.0 | 0.0 | 0.00 | 0.00 | 0.00 | 26 | 1010.8 |
| 20260502040312 | 71 | 34 | 0.0 | 0.0 | 0.00 | 0.00 | 0.00 | 26 | 1010.8 |
| 20260502031311 | 74 | 278 | 0.0 | 0.0 | 0.00 | 0.00 | 0.00 | 26 | 1010.2 |
| 20260502030810 | 74 | 278 | 0.0 | 0.0 | 0.00 | 0.00 | 0.00 | 26 | 1010.0 |
| 20260502030310 | 74 | 278 | 0.0 | 0.0 | 0.00 | 0.00 | 0.00 | 25 | 1010.1 |
| 20260502025810 | 75 | 278 | 0.0 | 0.0 | 0.00 | 0.00 | 0.00 | 25 | 1010.0 |
| 20260502025310 | 76 | 278 | 0.0 | 0.0 | 0.00 | 0.00 | 0.00 | 25 | 1009.8 |
| 20260502024809 | 76 | 278 | 0.0 | 0.0 | 0.00 | 0.00 | 0.00 | 25 | 1009.8 |
| 20260502023809 | 78 | 278 | 0.0 | 0.0 | 0.00 | 0.00 | 0.00 | 23 | 1009.7 |
| 20260502023309 | 79 | 278 | 0.0 | 0.0 | 0.00 | 0.00 | 0.00 | 23 | 1010.0 |
| 20260502022309 | 81 | 278 | 0.0 | 0.0 | 0.00 | 0.00 | 0.00 | 21 | 1009.9 |
| 20260502021809 | 81 | 278 | 0.0 | 1.0 | 0.00 | 0.00 | 0.00 | 21 | 1009.8 |
| 20260502021309 | 82 | 278 | 0.0 | 1.0 | 0.00 | 0.00 | 0.00 | 21 | 1009.8 |
| 20260502020808 | 82 | 234 | 0.0 | 2.0 | 0.00 | 0.00 | 0.00 | 21 | 1009.8 |
| 20260502015808 | 83 | 285 | 0.0 | 4.0 | 0.00 | 0.00 | 0.00 | 20 | 1009.7 |
| 20260502015308 | 84 | 295 | 1.0 | 4.0 | 0.00 | 0.00 | 0.00 | 20 | 1009.5 |
| 20260502014808 | 85 | 270 | 1.0 | 4.0 | 0.00 | 0.00 | 0.00 | 19 | 1009.4 |
| 20260502014308 | 85 | 276 | 0.0 | 5.0 | 0.00 | 0.00 | 0.00 | 19 | 1009.5 |
| 20260502013808 | 85 | 263 | 1.0 | 7.0 | 0.00 | 0.00 | 0.00 | 19 | 1009.3 |
| 20260502013308 | 85 | 281 | 1.0 | 7.0 | 0.00 | 0.00 | 0.00 | 19 | 1009.3 |
| 20260502012808 | 86 | 292 | 1.0 | 3.0 | 0.00 | 0.00 | 0.00 | 18 | 1009.5 |
| 20260502011807 | 86 | 288 | 1.0 | 4.0 | 0.00 | 0.00 | 0.00 | 18 | 1009.5 |
| 20260502011307 | 86 | 293 | 1.0 | 5.0 | 0.00 | 0.00 | 0.00 | 19 | 1009.4 |
| 20260502010807 | 86 | 291 | 2.0 | 5.0 | 0.00 | 0.00 | 0.00 | 19 | 1009.5 |
| 20260502010307 | 87 | 333 | 1.0 | 3.0 | 0.00 | 0.00 | 0.00 | 19 | 1009.5 |
| 20260502005806 | 87 | 284 | 2.0 | 3.0 | 0.00 | 0.00 | 0.00 | 19 | 1009.5 |
| 20260502004806 | 87 | 283 | 3.0 | 7.0 | 0.00 | 0.00 | 0.00 | 19 | 1009.2 |
| 20260502004306 | 87 | 245 | 1.0 | 6.0 | 0.00 | 0.00 | 0.00 | 19 | 1009.1 |
| 20260502003306 | 88 | 181 | 0.0 | 5.0 | 0.00 | 0.00 | 0.00 | 18 | 1009.1 |
| 20260502002805 | 88 | 214 | 3.0 | 5.0 | 0.00 | 0.00 | 0.00 | 18 | 1009.2 |
| 20260502002306 | 88 | 212 | 3.0 | 5.0 | 0.00 | 0.00 | 0.00 | 18 | 1009.2 |
| 20260502001305 | 88 | 304 | 2.0 | 6.0 | 0.00 | 0.00 | 0.00 | 18 | 1009.3 |
| 20260502000805 | 88 | 250 | 0.0 | 6.0 | 0.00 | 0.00 | 0.00 | 18 | 1009.3 |
| 20260501235805 | 88 | 284 | 0.0 | 5.0 | 0.00 | 0.00 | 0.00 | 18 | 1009.3 |
| 20260501235306 | 88 | 236 | 0.0 | 5.0 | 0.00 | 0.00 | 0.00 | 18 | 1009.4 |
| 20260501234805 | 88 | 269 | 2.0 | 3.0 | 0.00 | 0.00 | 0.00 | 19 | 1009.5 |
| 20260501234304 | 87 | 195 | 0.0 | 7.0 | 0.00 | 0.00 | 0.00 | 19 | 1009.3 |
| 20260501233804 | 87 | 321 | 1.0 | 7.0 | 0.00 | 0.00 | 0.00 | 19 | 1009.2 |
| 20260501233304 | 88 | 269 | 4.0 | 6.0 | 0.00 | 0.00 | 0.00 | 18 | 1009.5 |
| 20260501232804 | 87 | 233 | 0.0 | 6.0 | 0.00 | 0.00 | 0.00 | 18 | 1009.3 |
| 20260501231804 | 87 | 246 | 2.0 | 7.0 | 0.00 | 0.00 | 0.00 | 19 | 1009.4 |
| 20260501231304 | 88 | 294 | 3.0 | 7.0 | 0.00 | 0.00 | 0.00 | 19 | 1009.4 |
| 20260501230804 | 88 | 219 | 6.0 | 6.0 | 0.00 | 0.00 | 0.00 | 19 | 1009.4 |
| 20260501230303 | 87 | 352 | 3.0 | 8.0 | 0.00 | 0.00 | 0.00 | 19 | 1009.4 |
| 20260501225803 | 88 | 292 | 6.0 | 8.0 | 0.00 | 0.00 | 0.00 | 19 | 1009.5 |
| 20260501224802 | 88 | 272 | 0.0 | 7.0 | 0.00 | 0.00 | 0.00 | 18 | 1009.6 |
| 20260501224302 | 88 | 240 | 0.0 | 7.0 | 0.00 | 0.00 | 0.00 | 18 | 1009.6 |
| 20260501223803 | 88 | 229 | 4.0 | 7.0 | 0.00 | 0.00 | 0.00 | 18 | 1009.6 |
| 20260501222802 | 87 | 154 | 0.0 | 9.0 | 0.00 | 0.00 | 0.00 | 18 | 1009.6 |
| 20260501222305 | 87 | 296 | 3.0 | 9.0 | 0.00 | 0.00 | 0.00 | 19 | 1009.8 |
| 20260501221802 | 87 | 266 | 3.0 | 6.0 | 0.00 | 0.00 | 0.00 | 19 | 1009.8 |
| 20260501220302 | 87 | 271 | 1.0 | 6.0 | 0.00 | 0.00 | 0.00 | 19 | 1009.8 |
| 20260501215801 | 87 | 206 | 2.0 | 6.0 | 0.00 | 0.00 | 0.00 | 20 | 1010.0 |
| 20260501215305 | 88 | 277 | 1.0 | 6.0 | 0.00 | 0.00 | 0.00 | 19 | 1010.3 |
| 20260501214801 | 88 | 228 | 4.0 | 6.0 | 0.00 | 0.00 | 0.00 | 20 | 1010.4 |
| 20260501214301 | 87 | 161 | 0.0 | 5.0 | 0.00 | 0.00 | 0.00 | 20 | 1010.4 |
| 20260501213300 | 87 | 125 | 2.0 | 6.0 | 0.00 | 0.00 | 0.00 | 20 | 1010.6 |
| 20260501212800 | 87 | 224 | 2.0 | 6.0 | 0.00 | 0.00 | 0.00 | 20 | 1010.6 |
| 20260501211800 | 87 | 120 | 2.0 | 6.0 | 0.00 | 0.00 | 0.00 | 20 | 1010.7 |
| 20260501211300 | 86 | 196 | 1.0 | 6.0 | 0.00 | 0.00 | 0.00 | 22 | 1010.6 |
| 20260501210800 | 86 | 205 | 2.0 | 8.0 | 0.00 | 0.00 | 0.00 | 22 | 1010.8 |
| 20260501205800 | 86 | 155 | 1.0 | 7.0 | 0.00 | 0.00 | 0.00 | 22 | 1010.7 |
| 20260501204759 | 85 | 3 | 2.0 | 8.0 | 0.00 | 0.00 | 0.00 | 23 | 1011.1 |
| 20260501204259 | 85 | 270 | 2.0 | 7.0 | 0.00 | 0.00 | 0.00 | 22 | 1011.2 |
| 20260501203759 | 85 | 328 | 2.0 | 6.0 | 0.00 | 0.00 | 0.00 | 22 | 1011.3 |
| 20260501202759 | 85 | 311 | 4.0 | 7.0 | 0.00 | 0.00 | 0.00 | 22 | 1011.4 |
| 20260501201758 | 85 | 288 | 4.0 | 7.0 | 0.00 | 0.00 | 0.00 | 21 | 1011.5 |
| 20260501201258 | 86 | 255 | 2.0 | 8.0 | 0.00 | 0.00 | 0.00 | 22 | 1011.5 |
| 20260501200758 | 85 | 330 | 0.0 | 8.0 | 0.00 | 0.00 | 0.00 | 23 | 1011.5 |
| 20260501200258 | 85 | 239 | 6.0 | 7.0 | 0.00 | 0.00 | 0.00 | 23 | 1011.6 |
| 20260501194257 | 84 | 288 | 4.0 | 6.0 | 0.00 | 0.00 | 0.00 | 22 | 1011.8 |
| 20260501193257 | 84 | 279 | 2.0 | 9.0 | 0.00 | 0.00 | 0.00 | 22 | 1011.9 |
| 20260501192757 | 84 | 184 | 4.0 | 9.0 | 0.00 | 0.00 | 0.00 | 23 | 1012.1 |
| 20260501192258 | 83 | 78 | 0.0 | 5.0 | 0.00 | 0.00 | 0.00 | 24 | 1012.0 |
| 20260501191756 | 83 | 211 | 3.0 | 5.0 | 0.00 | 0.00 | 0.00 | 24 | 1012.1 |
| 20260501191256 | 82 | 246 | 4.0 | 6.0 | 0.00 | 0.00 | 0.00 | 24 | 1012.2 |
| 20260501190756 | 83 | 131 | 2.0 | 6.0 | 0.00 | 0.00 | 0.00 | 24 | 1012.3 |
| 20260501190256 | 83 | 163 | 2.0 | 8.0 | 0.00 | 0.00 | 0.00 | 24 | 1012.2 |
| 20260501185256 | 82 | 148 | 5.0 | 7.0 | 0.00 | 0.00 | 0.00 | 26 | 1012.4 |
| 20260501184756 | 82 | 89 | 1.0 | 5.0 | 0.00 | 0.00 | 0.00 | 25 | 1012.6 |
| 20260501184255 | 82 | 311 | 1.0 | 5.0 | 0.00 | 0.00 | 0.00 | 25 | 1012.6 |
| 20260501183755 | 82 | 138 | 3.0 | 5.0 | 0.00 | 0.00 | 0.00 | 25 | 1012.6 |
| 20260501183255 | 82 | 225 | 0.0 | 8.0 | 0.00 | 0.00 | 0.00 | 25 | 1012.7 |
| 20260501182755 | 82 | 177 | 4.0 | 8.0 | 0.00 | 0.00 | 0.00 | 25 | 1012.7 |
| 20260501181755 | 82 | 222 | 1.0 | 5.0 | 0.00 | 0.00 | 0.00 | 26 | 1012.9 |
| 20260501181254 | 81 | 142 | 2.0 | 7.0 | 0.00 | 0.00 | 0.00 | 28 | 1012.8 |
| 20260501180754 | 81 | 108 | 3.0 | 7.0 | 0.00 | 0.00 | 0.00 | 27 | 1012.9 |
| 20260501180254 | 81 | 301 | 2.0 | 5.0 | 0.00 | 0.00 | 0.00 | 28 | 1012.9 |
| 20260501175754 | 81 | 238 | 2.0 | 5.0 | 0.00 | 0.00 | 0.00 | 28 | 1013.0 |
| 20260501175254 | 81 | 191 | 1.0 | 5.0 | 0.00 | 0.00 | 0.00 | 28 | 1013.3 |
| 20260501174754 | 81 | 148 | 2.0 | 8.0 | 0.00 | 0.00 | 0.00 | 28 | 1013.3 |
| 20260501174254 | 80 | 213 | 1.0 | 8.0 | 0.00 | 0.00 | 0.00 | 29 | 1013.2 |
| 20260501173754 | 79 | 193 | 2.0 | 6.0 | 0.00 | 0.00 | 0.00 | 30 | 1013.2 |
| 20260501172753 | 79 | 245 | 4.0 | 7.0 | 0.00 | 0.00 | 0.00 | 30 | 1013.2 |
| 20260501171253 | 78 | 248 | 2.0 | 6.0 | 0.00 | 0.00 | 0.00 | 31 | 1013.2 |